MinXSS-2 (43758 NORAD) Tracking and Keplerian Element Data

This shows tracking and keplerian element data for the satellite.

Feedback or suggestion? Click here.




ElementValue
Catalog43758
NameMinXSS-2
Epoch Orbit38656
Epoch Day354.18817808
Epoch Year2025
RAAN61.6558
Inclination97.4793
Eccentricity0.0009486
Argument of Perigee184.0807
Mean Anonmoly176.036
Mean Motion15.34873749
Decay Rate0.00017285
L11 43758U 18099A 25354.18817808 .00017285 00000-0 51228-3 0 9998
L22 43758 97.4793 61.6558 0009486 184.0807 176.0360 15.34873749386566



Live tracking and technical data element details for MinXSS-2 (NORAD 43758). MinXSS-2 can be tracked NOW for your location showing map with azimuth and elevation plus other details from your city location.







IsCatalogInMostPopularTable: catalog: 43758, numindb: 383
Update: records affected: 1



GetName: 43758 MinXSS-2

Hit Count: updated at: Fri, 16 Jan 2026 02:44:18 GMT